User: anonymous   Login
Location: Unspecified
(0.0000°N, 0.0000°E)
Time: 20:22:58
(UTC+01:00)
Language:

Cosmos 2251 - Orbit

View from above orbital plane
View from above orbital plane
View from above satellite
View from above satellite

Ground track
Ground track

The orbit data is extracted from the following two-line orbital elements,

1 22675U 93036A   22019.48760596  .00000034  00000-0  22043-4 0  9994
2 22675  74.0392  34.8304 0023776 106.6162 253.7603 14.32591900493880
Epoch (UTC): 19 January 2022 11:42:09
Eccentricity: 0.0023776
inclination: 74.0392°
perigee height: 766 km
apogee height: 800 km
right ascension of ascending node: 34.8304°
argument of perigee: 106.6162°
revolutions per day: 14.32591900
mean anomaly at epoch: 253.7603°
orbit number at epoch: 49388

The dashed part of the orbit path shows where the satellite is in the earth's shadow,  

DLR